Regional Weather Roundup
Issued by NWS

Home | Current Version | Previous Version | Graphics & Text | Print | Product List | Glossary On
Versions: 1 2 3 4 5 6 7 8 9 10 11 12 13 14 15 16 17 18 19 20 21 22 23 24 25 26 27 28 29 30 31 32 33 34 35 36 37 38 39 40 41 42 43 44 45 46 47 48 49 50
000
ASUS43 KIND 012109
RWRIN

WEATHER ROUNDUP FOR INDIANA
NATIONAL WEATHER SERVICE INDIANAPOLIS IN
500 PM EDT SUN MAY 01 2016

NOTE: "FAIR" INDICATES FEW OR NO CLOUDS BELOW 12,000 FEET WITH NO
SIGNIFICANT WEATHER AND/OR OBSTRUCTIONS TO VISIBILITY.

* - STATION DOES NOT REPORT WEATHER SUCH AS PRECIPITATION OR FOG.

+ - STATION NOT QUALITY CONTROLLED BY THE NATIONAL WEATHER SERVICE.
    USE DATA WITH CAUTION...ESPECIALLY DEWPOINT AND RELATIVE
    HUMIDITY OBSERVATIONS.

INZ001>003-010>013-019-020-012200-
NORTHWEST INDIANA

CITY           SKY/WX    TMP DP  RH WIND       PRES   REMARKS
GARY /AIRPORT/ CLOUDY    50  50 100 N8        29.99F FOG
KNOX *+        CLOUDY    55  46  71 NE6       29.95F
LA PORTE +     CLOUDY    55  54  97 N9        29.97F
MICHIGAN CITY+ CLOUDY    50  50 100 N6        29.98F
MONTICELLO +   CLOUDY    61  54  78 N6        29.92F
RENSSELAER +   CLOUDY    57  54  88 N6        29.94F
VALPARAISO     CLOUDY    52  47  83 N10       29.97F

$$

LMZ046-743>745-012200-
SOUTHERN LAKE MICHIGAN

STATION/POSITION TIME  TEMP    WIND        PRES    WAVE
                       AIR SEA DIR/SP/G            HT
                 (UTC) (F)     (DEG/KT/KT) (MB)    (FT)
BURNS HARBOR     2016   45      30/  9/ 11 1015.9F
MICHIGAN CITY    2000   45     350/  9/ 10   N/A

$$

INZ004-005-014>016-021>024-012200-
NORTH CENTRAL INDIANA

CITY           SKY/WX    TMP DP  RH WIND       PRES   REMARKS
ELKHART        CLOUDY    55  54  94 MISG      29.97F
GOSHEN         CLOUDY    56  51  84 N7        29.95F
LOGANSPORT +   CLOUDY    61  57  88 N6        29.93F
PERU/GRISSOM   PTSUNNY   65  61  85 NW7       29.90F
ROCHESTER +    CLOUDY    59  55  88 N7        29.94F
SOUTH BEND     CLOUDY    55  49  80 E3        29.97F
WARSAW +       CLOUDY    55  52  88 NE5       29.95F

$$

INZ006>009-017-018-025>027-012200-
NORTHEAST INDIANA

CITY           SKY/WX    TMP DP  RH WIND       PRES   REMARKS
ANGOLA *+      CLOUDY    54  52  94 N6        29.96F
AUBURN +       CLOUDY    57  52  82 NE7       29.96F
FORT WAYNE     CLOUDY    62  56  80 N7        29.94F
HUNTINGTON +   CLOUDY    61  58  88 N9        29.92F

$$

INZ028-029-035-036-043>045-051>053-012200-
WEST CENTRAL INDIANA

CITY           SKY/WX    TMP DP  RH WIND       PRES   REMARKS
CRAWFORDSVL +  CLOUDY    69  58  68 W6        29.90F
GREENCASTLE +  PTSUNNY   73  61  64 W6        29.90F
LAFAYETTE      PTSUNNY   67  59  75 NW6       29.91F
TERRE HAUTE    CLOUDY    74  58  57 VRB3      29.89F

$$

INZ030>032-037>040-046>048-054>057-064-065-012200-
CENTRAL INDIANA

CITY           SKY/WX    TMP DP  RH WIND       PRES   REMARKS
CP ATTERBURY + MOSUNNY   75  55  50 N5        29.89S HAZE
COLUMBUS       MOSUNNY   75  59  57 N6        29.89F
FRANKFORT +      N/A     73  48  41 CALM      29.92F
INDIANAPOLIS   PTSUNNY   74  55  51 W9        29.88F
-EAGLE CREEK   PTSUNNY   75  56  51 N5        29.88F
KOKOMO *+      PTSUNNY   70  61  73 N8        29.91F
MARION +       PTSUNNY   71  58  64 NW9       29.91F
SHELBYVILLE    PTSUNNY   78  56  46 NW5       29.88F
ZIONSVILLE +   MOSUNNY   71  58  62 W6        29.91F

$$

INZ033-034-041-042-049-050-058-059-012200-
EAST CENTRAL INDIANA

CITY           SKY/WX    TMP DP  RH WIND       PRES   REMARKS
MUNCIE         MOSUNNY   74  55  51 W9G16     29.90F

$$

INZ060-061-067>069-081>083-085>088-012200-
SOUTHWEST INDIANA

CITY           SKY/WX    TMP DP  RH WIND       PRES   REMARKS
EVANSVILLE     SUNNY     77  62  59 SW15      29.88F
HUNTINGBURG *+ MOSUNNY   73  61  64 SW8       29.89F
WASHINGTON +   PTSUNNY   78  61  56 SW8       29.87F

$$

INZ062-063-066-070>080-084-089>092-012200-
SOUTH CENTRAL AND SOUTHEAST INDIANA

CITY           SKY/WX    TMP DP  RH WIND       PRES   REMARKS
BLOOMINGTON    PTSUNNY   77  56  48 W7        29.88F
MADISON *+     SUNNY     77  59  53 S6        29.90S
NORTH VERNON + MOSUNNY   79  64  61 CALM      29.88F

$$





USA.gov is the U.S. government's official web portal to all federal, state and local government web resources and services.